Tracking 30995 objects as of 7-Jul-2025
HD Live streaming from Space Station
objects crossing your sky now

COSMOS 1199

Track COSMOS 1199 now!
10-day predictions
COSMOS 1199 is classified as:


NORAD ID: 11882
Int'l Code: 1980-058H
Perigee: 1,480.1 km
Apogee: 1,537.2 km
Inclination: 74.0 °
Period: 116.0 minutes
Semi major axis: 7879 km
RCS: 0.728 m2 (medium)
Launch date: July 9, 1980
Source: Commonwealth of Independent States (former USSR) (CIS)
Launch site: PLESETSK MISSILE AND SPACE COMPLEX (PKMTR)
Your satellite tracking list
Your tracking list is empty




NASA's NSSDC Master Catalog

Two Line Element Set (TLE):
1 11882U 80058H   25187.76045881 -.00000008  00000-0  56195-4 0  9992
2 11882  74.0185  53.0636 0036235 105.0360 322.5685 12.41200633 38907
Source of the keplerian elements: AFSPC